Location: Dulzura
(32.6442°N, 116.7814°W)
Time: 14:53:44
(UTC+00:00)

DMSP B5D2-2 - Pass Details

Date: 07 December 2021
Orbit: 790 x 805 km, 98.3° (Epoch: 20 January)

Event Time Altitude Azimuth Distance (km) Brightness Sun altitude
Rises 13:48:37 0° 166° (SSE) 3,281 7.8 -10.0°
Reaches altitude 10° 13:50:56 10° 167° (SSE) 2,353 7.0 -9.6°
Maximum altitude 13:56:09 89° 261° (W) 797 4.1 -8.6°
Drops below altitude 10° 14:01:22 10° 347° (NNW) 2,360 6.2 -7.5°
Sets 14:03:42 0° 348° (NNW) 3,291 6.9 -7.1°
